Wetterdaten: Woche 11.12.06 - 17.12.06 (KW50)
Datum Zeit Temperatur Luftfeuchte Luftdruck Niederschlag Windrichtung Wind
11.12.2006 00:00 -0,9 C 98 % 1032 hPa 0,0 l/m N 0,0 km/h (0 Bft)
11.12.2006 01:00 -1,4 C 98 % 1032 hPa 0,0 l/m N 0,0 km/h (0 Bft)
11.12.2006 02:00 -1,7 C 98 % 1031 hPa 0,0 l/m N 0,0 km/h (0 Bft)
11.12.2006 03:00 -0,4 C 98 % 1031 hPa 0,0 l/m N 0,0 km/h (0 Bft)
11.12.2006 04:00 -0,3 C 98 % 1031 hPa 0,0 l/m N 0,0 km/h (0 Bft)
11.12.2006 05:00 -0,3 C 98 % 1030 hPa 0,0 l/m N 0,0 km/h (0 Bft)
11.12.2006 06:00 0,2 C 98 % 1030 hPa 0,0 l/m N 0,0 km/h (0 Bft)
11.12.2006 07:00 0,4 C 98 % 1030 hPa 0,0 l/m N 0,0 km/h (0 Bft)
11.12.2006 08:00 0,3 C 98 % 1030 hPa 0,0 l/m N 0,0 km/h (0 Bft)
11.12.2006 09:00 0,2 C 97 % 1030 hPa 0,0 l/m N 0,0 km/h (0 Bft)
11.12.2006 10:00 0,6 C 97 % 1030 hPa 0,0 l/m O-SO 1,6 km/h (1 Bft)
11.12.2006 11:00 1,2 C 94 % 1029 hPa 0,0 l/m SO 10,6 km/h (2 Bft)
11.12.2006 12:00 2,8 C 80 % 1029 hPa 0,0 l/m S-SO 10,0 km/h (2 Bft)
11.12.2006 13:00 3,0 C 75 % 1028 hPa 0,0 l/m S-SO 8,1 km/h (2 Bft)
11.12.2006 14:00 2,8 C 74 % 1028 hPa 0,0 l/m SO 9,6 km/h (2 Bft)
11.12.2006 15:00 2,5 C 76 % 1027 hPa 0,0 l/m SO 9,0 km/h (2 Bft)
11.12.2006 16:00 2,0 C 84 % 1027 hPa 0,0 l/m SO 9,4 km/h (2 Bft)
11.12.2006 17:00 1,7 C 86 % 1027 hPa 0,0 l/m SO 7,7 km/h (2 Bft)
11.12.2006 18:00 1,7 C 85 % 1027 hPa 0,0 l/m SO 9,6 km/h (2 Bft)
11.12.2006 19:00 1,7 C 83 % 1027 hPa 0,0 l/m S-SO 10,5 km/h (2 Bft)
11.12.2006 20:00 1,5 C 84 % 1026 hPa 0,0 l/m SO 8,7 km/h (2 Bft)
11.12.2006 21:00 1,4 C 82 % 1026 hPa 0,0 l/m SO 8,5 km/h (2 Bft)
11.12.2006 22:00 1,8 C 79 % 1026 hPa 0,0 l/m S-SO 8,1 km/h (2 Bft)
11.12.2006 23:00 2,1 C 76 % 1026 hPa 0,0 l/m SO 8,0 km/h (2 Bft)
12.12.2006 00:00 2,2 C 74 % 1025 hPa 0,0 l/m S-SO 8,7 km/h (2 Bft)
12.12.2006 01:00 2,2 C 72 % 1024 hPa 0,0 l/m S-SO 9,8 km/h (2 Bft)
12.12.2006 02:00 1,8 C 77 % 1024 hPa 0,0 l/m SO 8,0 km/h (2 Bft)
12.12.2006 03:00 1,6 C 77 % 1024 hPa 0,0 l/m S-SO 7,4 km/h (2 Bft)
12.12.2006 04:00 2,8 C 65 % 1024 hPa 0,0 l/m S-SO 9,4 km/h (2 Bft)
12.12.2006 05:00 2,4 C 72 % 1024 hPa 0,0 l/m SO 8,9 km/h (2 Bft)
12.12.2006 06:00 2,4 C 75 % 1025 hPa 0,0 l/m S-SO 9,2 km/h (2 Bft)
12.12.2006 07:00 2,7 C 72 % 1026 hPa 0,0 l/m S 11,2 km/h (2 Bft)
12.12.2006 08:00 1,7 C 91 % 1026 hPa 1,0 l/m S 11,1 km/h (2 Bft)
12.12.2006 09:00 1,8 C 96 % 1027 hPa 0,0 l/m S-SO 11,2 km/h (2 Bft)
12.12.2006 10:00 2,1 C 96 % 1028 hPa 0,0 l/m SO 9,6 km/h (2 Bft)
12.12.2006 11:00 2,8 C 93 % 1028 hPa 0,0 l/m SO 5,7 km/h (1 Bft)
12.12.2006 12:00 3,4 C 89 % 1028 hPa 0,0 l/m SO 8,8 km/h (2 Bft)
12.12.2006 13:00 4,0 C 85 % 1027 hPa 0,0 l/m S-SO 10,5 km/h (2 Bft)
12.12.2006 14:00 5,0 C 76 % 1026 hPa 0,0 l/m S-SO 10,2 km/h (2 Bft)
12.12.2006 15:00 4,9 C 71 % 1026 hPa 0,0 l/m SO 8,5 km/h (2 Bft)
12.12.2006 16:00 3,1 C 78 % 1026 hPa 1,0 l/m S-SO 3,6 km/h (1 Bft)
12.12.2006 17:00 2,6 C 84 % 1027 hPa 0,0 l/m N 0,0 km/h (0 Bft)
12.12.2006 18:00 2,7 C 87 % 1027 hPa 0,0 l/m N 0,0 km/h (0 Bft)
12.12.2006 19:00 2,4 C 89 % 1027 hPa 0,0 l/m N 0,0 km/h (0 Bft)
12.12.2006 20:00 1,7 C 91 % 1027 hPa 0,0 l/m N 0,0 km/h (0 Bft)
12.12.2006 21:00 0,7 C 93 % 1027 hPa 0,0 l/m N 0,0 km/h (0 Bft)
12.12.2006 22:00 0,4 C 98 % 1027 hPa 0,0 l/m N 0,2 km/h (0 Bft)
12.12.2006 23:00 -0,2 C 98 % 1028 hPa 0,0 l/m N 0,0 km/h (0 Bft)
13.12.2006 00:00 -0,8 C 98 % 1028 hPa 0,0 l/m SO 2,2 km/h (1 Bft)
13.12.2006 01:00 -0,8 C 98 % 1028 hPa 0,0 l/m N 0,0 km/h (0 Bft)
13.12.2006 02:00 -0,7 C 98 % 1028 hPa 0,0 l/m N 0,0 km/h (0 Bft)
13.12.2006 03:00 -1,3 C 98 % 1029 hPa 0,0 l/m N 0,0 km/h (0 Bft)
13.12.2006 04:00 -1,5 C 98 % 1029 hPa 0,0 l/m N 0,0 km/h (0 Bft)
13.12.2006 05:00 -1,4 C 98 % 1030 hPa 0,0 l/m O-SO 2,2 km/h (1 Bft)
13.12.2006 06:00 0,7 C 98 % 1030 hPa 0,0 l/m O-SO 3,2 km/h (1 Bft)
13.12.2006 07:00 1,4 C 98 % 1031 hPa 0,0 l/m S-SW 5,7 km/h (1 Bft)
13.12.2006 08:00 1,3 C 98 % 1031 hPa 0,0 l/m SO 5,3 km/h (1 Bft)
13.12.2006 09:00 1,7 C 98 % 1032 hPa 0,0 l/m S-SO 7,0 km/h (2 Bft)
13.12.2006 10:00 2,4 C 97 % 1032 hPa 0,0 l/m O-SO 11,8 km/h (2 Bft)
13.12.2006 11:00 3,9 C 87 % 1032 hPa 0,0 l/m SO 12,3 km/h (3 Bft)
13.12.2006 12:00 6,0 C 74 % 1032 hPa 0,0 l/m SO 11,7 km/h (2 Bft)
13.12.2006 13:00 7,1 C 67 % 1031 hPa 0,0 l/m SO 10,5 km/h (2 Bft)
13.12.2006 14:00 7,6 C 63 % 1031 hPa 0,0 l/m S-SO 8,6 km/h (2 Bft)
13.12.2006 15:00 6,4 C 69 % 1031 hPa 0,0 l/m O-SO 5,5 km/h (1 Bft)
13.12.2006 16:00 4,2 C 76 % 1031 hPa 0,0 l/m N 0,0 km/h (0 Bft)
13.12.2006 17:00 2,3 C 84 % 1032 hPa 0,0 l/m N 0,0 km/h (0 Bft)
13.12.2006 18:00 1,1 C 88 % 1032 hPa 0,0 l/m N 0,0 km/h (0 Bft)
13.12.2006 19:00 0,1 C 93 % 1032 hPa 0,0 l/m N 0,0 km/h (0 Bft)
13.12.2006 20:00 -0,7 C 95 % 1032 hPa 0,0 l/m N 0,0 km/h (0 Bft)
13.12.2006 21:00 -1,2 C 97 % 1032 hPa 0,0 l/m N 0,0 km/h (0 Bft)
13.12.2006 22:00 -1,5 C 98 % 1032 hPa 0,0 l/m SO 0,3 km/h (0 Bft)
13.12.2006 23:00 -1,8 C 98 % 1032 hPa 0,0 l/m N 0,0 km/h (0 Bft)
14.12.2006 00:00 -2,2 C 98 % 1032 hPa 0,0 l/m SO 0,3 km/h (0 Bft)
14.12.2006 01:00 -2,5 C 98 % 1032 hPa 0,0 l/m N 0,0 km/h (0 Bft)
14.12.2006 02:00 -2,9 C 98 % 1032 hPa 0,0 l/m N 0,0 km/h (0 Bft)
14.12.2006 03:00 -3,3 C 98 % 1032 hPa 0,0 l/m N 0,0 km/h (0 Bft)
14.12.2006 04:00 -3,4 C 98 % 1032 hPa 0,0 l/m N 0,0 km/h (0 Bft)
14.12.2006 05:00 -3,2 C 98 % 1032 hPa 0,0 l/m SO 1,7 km/h (1 Bft)
14.12.2006 06:00 -2,4 C 98 % 1032 hPa 0,0 l/m SO 1,7 km/h (1 Bft)
14.12.2006 07:00 -2,4 C 98 % 1032 hPa 0,0 l/m SO 7,0 km/h (2 Bft)
14.12.2006 08:00 -2,2 C 98 % 1033 hPa 0,0 l/m SO 3,4 km/h (1 Bft)
14.12.2006 09:00 -1,7 C 98 % 1033 hPa 0,0 l/m SO 7,0 km/h (2 Bft)
14.12.2006 10:00 -0,9 C 98 % 1033 hPa 0,0 l/m SO 5,1 km/h (1 Bft)
14.12.2006 11:00 -0,3 C 98 % 1033 hPa 0,0 l/m SO 4,6 km/h (1 Bft)
14.12.2006 12:00 0,1 C 98 % 1032 hPa 0,0 l/m SO 6,1 km/h (2 Bft)
14.12.2006 13:00 1,7 C 98 % 1032 hPa 0,0 l/m O-SO 7,0 km/h (2 Bft)
14.12.2006 14:00 3,0 C 93 % 1031 hPa 0,0 l/m SO 7,0 km/h (2 Bft)
14.12.2006 15:00 1,2 C 95 % 1032 hPa 0,0 l/m O-SO 6,2 km/h (2 Bft)
14.12.2006 16:00 0,2 C 98 % 1031 hPa 0,0 l/m O-SO 1,2 km/h (1 Bft)
14.12.2006 17:00 -0,7 C 98 % 1032 hPa 0,0 l/m N 0,0 km/h (0 Bft)
14.12.2006 18:00 -1,6 C 98 % 1032 hPa 0,0 l/m N 0,0 km/h (0 Bft)
14.12.2006 19:00 -2,2 C 98 % 1032 hPa 0,0 l/m N 0,0 km/h (0 Bft)
14.12.2006 20:00 -2,7 C 98 % 1032 hPa 0,0 l/m N 0,0 km/h (0 Bft)
14.12.2006 21:00 -2,9 C 98 % 1032 hPa 0,0 l/m N 0,0 km/h (0 Bft)
14.12.2006 22:00 -3,1 C 98 % 1032 hPa 0,0 l/m N 0,0 km/h (0 Bft)
14.12.2006 23:00 -3,4 C 98 % 1032 hPa 0,0 l/m N 0,0 km/h (0 Bft)
15.12.2006 00:00 -3,6 C 98 % 1032 hPa 0,0 l/m N 0,0 km/h (0 Bft)
15.12.2006 01:00 -3,8 C 98 % 1031 hPa 0,0 l/m N 0,0 km/h (0 Bft)
15.12.2006 02:00 -4,0 C 98 % 1031 hPa 0,0 l/m N 0,0 km/h (0 Bft)
15.12.2006 03:00 -3,3 C 98 % 1031 hPa 0,0 l/m N 0,0 km/h (0 Bft)
15.12.2006 04:00 -2,7 C 98 % 1031 hPa 0,0 l/m N 0,0 km/h (0 Bft)
15.12.2006 05:00 -2,5 C 98 % 1031 hPa 0,0 l/m N 0,0 km/h (0 Bft)
15.12.2006 06:00 -2,5 C 98 % 1031 hPa 0,0 l/m N 0,0 km/h (0 Bft)
15.12.2006 07:00 -2,3 C 98 % 1031 hPa 0,0 l/m N 0,0 km/h (0 Bft)
15.12.2006 08:00 -1,8 C 98 % 1031 hPa 0,0 l/m N 0,0 km/h (0 Bft)
15.12.2006 09:00 -1,5 C 98 % 1031 hPa 0,0 l/m N 0,0 km/h (0 Bft)
15.12.2006 10:00 -1,1 C 98 % 1031 hPa 0,0 l/m N 0,0 km/h (0 Bft)
15.12.2006 11:00 -0,5 C 98 % 1031 hPa 0,0 l/m N 0,0 km/h (0 Bft)
15.12.2006 12:00 0,1 C 98 % 1031 hPa 0,0 l/m N 0,0 km/h (0 Bft)
15.12.2006 13:00 0,9 C 98 % 1030 hPa 0,0 l/m SO 7,5 km/h (2 Bft)
15.12.2006 14:00 0,9 C 98 % 1030 hPa 0,0 l/m O-SO 10,7 km/h (2 Bft)
15.12.2006 15:00 0,8 C 98 % 1030 hPa 0,0 l/m SO 10,4 km/h (2 Bft)
15.12.2006 16:00 0,3 C 98 % 1030 hPa 0,0 l/m SO 6,5 km/h (2 Bft)
15.12.2006 17:00 -0,3 C 98 % 1030 hPa 0,0 l/m N 0,0 km/h (0 Bft)
15.12.2006 18:00 -0,6 C 98 % 1030 hPa 0,0 l/m N 0,0 km/h (0 Bft)
15.12.2006 19:00 -1,0 C 98 % 1030 hPa 0,0 l/m N 0,0 km/h (0 Bft)
15.12.2006 20:00 -1,1 C 98 % 1030 hPa 0,0 l/m N 0,0 km/h (0 Bft)
15.12.2006 21:00 -1,2 C 98 % 1030 hPa 0,0 l/m N 0,0 km/h (0 Bft)
15.12.2006 22:00 -1,4 C 98 % 1029 hPa 0,0 l/m N 0,0 km/h (0 Bft)
15.12.2006 23:00 -1,9 C 98 % 1029 hPa 0,0 l/m N 0,0 km/h (0 Bft)
16.12.2006 00:00 -2,5 C 98 % 1029 hPa 0,0 l/m N 0,0 km/h (0 Bft)
16.12.2006 01:00 -2,8 C 98 % 1028 hPa 0,0 l/m N 0,0 km/h (0 Bft)
16.12.2006 02:00 -3,1 C 98 % 1028 hPa 0,0 l/m N 0,0 km/h (0 Bft)
16.12.2006 03:00 -3,3 C 98 % 1028 hPa 0,0 l/m N 0,0 km/h (0 Bft)
16.12.2006 04:00 -3,5 C 98 % 1028 hPa 0,0 l/m N 0,0 km/h (0 Bft)
16.12.2006 05:00 -3,7 C 98 % 1027 hPa 0,0 l/m N 0,0 km/h (0 Bft)
16.12.2006 06:00 -3,7 C 98 % 1028 hPa 0,0 l/m N 0,0 km/h (0 Bft)
16.12.2006 07:00 -3,4 C 98 % 1028 hPa 0,0 l/m N 0,0 km/h (0 Bft)
16.12.2006 08:00 -3,1 C 98 % 1028 hPa 0,0 l/m N 0,0 km/h (0 Bft)
16.12.2006 09:00 -2,6 C 98 % 1028 hPa 0,0 l/m N 0,0 km/h (0 Bft)
16.12.2006 10:00 -1,5 C 98 % 1028 hPa 0,0 l/m N 0,0 km/h (0 Bft)
16.12.2006 11:00 -0,2 C 98 % 1028 hPa 0,0 l/m N 0,0 km/h (0 Bft)
16.12.2006 12:00 1,3 C 98 % 1027 hPa 0,0 l/m O-SO 5,6 km/h (1 Bft)
16.12.2006 13:00 3,4 C 94 % 1026 hPa 0,0 l/m SO 6,1 km/h (2 Bft)
16.12.2006 14:00 4,4 C 78 % 1025 hPa 0,0 l/m SO 7,4 km/h (2 Bft)
16.12.2006 15:00 2,9 C 80 % 1025 hPa 0,0 l/m O-SO 5,5 km/h (1 Bft)
16.12.2006 16:00 1,8 C 87 % 1025 hPa 0,0 l/m N 0,0 km/h (0 Bft)
16.12.2006 17:00 1,6 C 92 % 1025 hPa 0,0 l/m NO 0,9 km/h (0 Bft)
16.12.2006 18:00 1,7 C 94 % 1025 hPa 0,0 l/m O 2,2 km/h (1 Bft)
16.12.2006 19:00 1,8 C 96 % 1025 hPa 0,0 l/m O-NO 1,2 km/h (1 Bft)
16.12.2006 20:00 2,0 C 96 % 1025 hPa 0,0 l/m O 2,8 km/h (1 Bft)
16.12.2006 21:00 2,2 C 97 % 1025 hPa 0,0 l/m O-NO 3,6 km/h (1 Bft)
16.12.2006 22:00 2,2 C 98 % 1026 hPa 0,0 l/m O 7,3 km/h (2 Bft)
16.12.2006 23:00 2,6 C 98 % 1026 hPa 0,0 l/m SO 8,9 km/h (2 Bft)
17.12.2006 00:00 3,5 C 98 % 1026 hPa 0,0 l/m S-SO 3,0 km/h (1 Bft)
17.12.2006 01:00 4,5 C 98 % 1026 hPa 0,0 l/m S-SO 9,5 km/h (2 Bft)
17.12.2006 02:00 4,7 C 98 % 1026 hPa 0,0 l/m S 8,3 km/h (2 Bft)
17.12.2006 03:00 4,8 C 98 % 1026 hPa 1,0 l/m S-SO 6,9 km/h (2 Bft)
17.12.2006 04:00 5,0 C 98 % 1026 hPa 0,0 l/m S-SO 7,4 km/h (2 Bft)
17.12.2006 05:00 4,8 C 98 % 1026 hPa 0,0 l/m SO 6,4 km/h (2 Bft)
17.12.2006 06:00 4,6 C 98 % 1026 hPa 0,0 l/m O-SO 3,5 km/h (1 Bft)
17.12.2006 07:00 4,5 C 98 % 1026 hPa 0,0 l/m N 0,0 km/h (0 Bft)
17.12.2006 08:00 4,5 C 98 % 1027 hPa 0,0 l/m W-NW 1,5 km/h (1 Bft)
17.12.2006 09:00 4,4 C 98 % 1027 hPa 0,0 l/m W 0,6 km/h (0 Bft)
17.12.2006 10:00 4,4 C 98 % 1027 hPa 1,0 l/m W-NW 2,6 km/h (1 Bft)
17.12.2006 11:00 4,2 C 98 % 1027 hPa 0,0 l/m W-NW 2,2 km/h (1 Bft)
17.12.2006 12:00 4,1 C 98 % 1026 hPa 0,0 l/m W 0,2 km/h (0 Bft)
17.12.2006 13:00 4,1 C 98 % 1026 hPa 1,0 l/m W-NW 0,5 km/h (0 Bft)
17.12.2006 14:00 4,0 C 98 % 1026 hPa 0,0 l/m N 0,0 km/h (0 Bft)
17.12.2006 15:00 4,0 C 98 % 1026 hPa 0,0 l/m N 0,0 km/h (0 Bft)
17.12.2006 16:00 3,8 C 98 % 1026 hPa 0,0 l/m N 0,0 km/h (0 Bft)
17.12.2006 17:00 3,4 C 98 % 1026 hPa 0,0 l/m N 0,0 km/h (0 Bft)
17.12.2006 18:00 3,1 C 98 % 1026 hPa 0,0 l/m W 1,1 km/h (1 Bft)
17.12.2006 19:00 2,9 C 98 % 1027 hPa 0,0 l/m N 0,3 km/h (0 Bft)
17.12.2006 20:00 2,5 C 98 % 1027 hPa 0,0 l/m W-NW 2,8 km/h (1 Bft)
17.12.2006 21:00 2,0 C 98 % 1027 hPa 0,0 l/m W 2,9 km/h (1 Bft)
17.12.2006 22:00 1,2 C 95 % 1027 hPa 0,0 l/m W 5,1 km/h (1 Bft)
17.12.2006 23:00 0,4 C 95 % 1027 hPa 0,0 l/m W-SW 4,1 km/h (1 Bft)
Min-Datum _ 15.12.06 12.12.06 12.12.06 - - 11.12.06
_ Min-Zeit 02:14 04:37 01:05 - - 00:00
Minimum _ -4,2 C 61 % 1024 hPa - - 0,0 km/h (0 Bft)
Max-Datum _ 13.12.06 11.12.06 14.12.06 12.12.06 - 12.12.06
_ Max-Zeit 14:06 00:00 08:35 08:37 - 07:50
Maximum _ 7,9 C 98 % 1033 hPa 1,0 l/m - 25,7 km/h
S (4 Bft)
Durchschnitt _ 0,8 C 93 % 1029 hPa #5,0 l/m SO 3,4 km/h (1 Bft)

Durchschnitt Minimum Temp.0,5 C
Durchschnitt Maximum Temp.1,0 C